Location: Oak Glen
(34.0495°N, 116.9470°E)
Time: 23:39:35
(UTC-07:00)

Tiangong 2 - Pass Details

Date: 13 October 2017
Orbit: 388 x 391 km, 42.8° (Epoch: 21 October)

Event Time Altitude Azimuth Distance (km) Brightness Sun altitude
Exits shadow 13:39:51 18° 3° (N) 1,047 3.3 -20.7°
Drops below altitude 10° 13:41:44 10° 39° (NE) 1,417 4.5 -20.4°
Sets 13:44:15 0° 59° (ENE) 2,274 6.1 -19.8°
